Regional Weather Roundup
Issued by NWS

Home | Current Version | Previous Version | Text Only | Print | Product List | Glossary Off
Versions: 1 2 3 4 5 6 7 8 9 10 11 12 13 14 15 16 17 18 19 20 21 22 23 24 25 26 27 28 29 30 31 32 33 34 35 36 37 38 39 40 41 42 43 44 45 46 47 48 49 50

000
ASUS43 KBIS 281320
RWRND

NORTH DAKOTA REGIONAL WEATHER ROUNDUP
NATIONAL WEATHER SERVICE BISMARCK ND
700 AM CST WED JAN 28 2015

NOTE: "FAIR" INDICATES FEW OR NO CLOUDS BELOW 12,000 FEET WITH NO
SIGNIFICANT WEATHER AND/OR OBSTRUCTIONS TO VISIBILITY.


NDZ001>003-009>011-017-281400-
NORTHWEST NORTH DAKOTA

CITY           SKY/WX    TMP DP  RH WIND       PRES   REMARKS
WILLISTON      CLEAR     29  27  92 CALM      29.74S
MINOT          FOG       27  25  92 N6        29.74S VSB 1/4
MINOT AFB      FRZ DRZL  28  28 100 N5        29.75R VSB 1/2
$$

NDZ018>021-031>035-040>046-281400-
SOUTHWEST NORTH DAKOTA

CITY           SKY/WX    TMP DP  RH WIND       PRES   REMARKS
BISMARCK       MOCLDY    28  27  96 CALM      29.73R
DICKINSON      MOCLDY    36  30  79 W9        29.73R
GARRISON         N/A     30  28  92 N5        29.72S
HETTINGER ARPT MOCLDY    37  31  78 NW10      29.76S
$$

NDZ004>008-012>016-024-026-027-054-281400-
NORTHEAST NORTH DAKOTA

CITY           SKY/WX    TMP DP  RH WIND       PRES   REMARKS
GRAND FORKS    CLOUDY    34  32  92 S13G20    29.80R
GRND FRKS AFB  CLOUDY    33  32  97 S8        29.78F FOG
DEVILS LAKE    CLOUDY    30  30 100 SE3       29.74S VSB 3/4
$$

NDZ022-023-025-028>030-036>039-047>053-281400-
SOUTHEAST NORTH DAKOTA

CITY           SKY/WX    TMP DP  RH WIND       PRES   REMARKS
FARGO          CLOUDY    34  31  88 S16G28    29.80F
JAMESTOWN      FOG       31  30  96 S7        29.74R VSB 1/4
$$




USA.gov is the U.S. government's official web portal to all federal, state and local government web resources and services.